CAPE
1285 1114 959 714 797 1098 1505 1084 1595 777 676 1255 734 509 503 750 301 656 1309 1308 1068 1203 754 716 1050 1078 594 349 272 184 79 80 17 37 96 76 54 44 43 25 10 30 74
1299 1086 1108 775 989 1412 1622 1412 1469 1399 1344 1080 1146 798 480 606 483 1049 1054 1526 1404 1771 1292 1096 898 994 604 582 308 218 383 156 26 181 89 37 171 177 123 101 116 48 69
1321 1231 1192 1006 1031 1599 1642 1749 2070 1905 1738 1617 1026 1037 1041 503 550 748 1434 1421 1414 1803 1541 1136 936 755 1067 729 531 419 436 416 435 168 39 27 34 195 240 176 150 80 91
1413 1386 1268 1271 1050 1675 1750 1773 2337 2411 2192 1832 1602 1500 1368 1030 809 573 1249 1128 781 1075 1618 1747 1111 1189 1250 973 744 642 560 604 450 314 191 145 154 19 85 190 167 133 98
1236 1418 1403 1318 1214 1682 1928 2040 2186 2303 2218 2316 1832 1805 1210 1361 662 431 899 702 1175 1100 1353 1566 1947 1442 1430 1198 1208 793 574 318 31 372 360 207 176 260 146 88 145 99 84
1511 1480 1497 1510 1345 1660 2092 2422 2453 2405 2180 2175 2317 1915 1978 1248 1229 512 657 924 896 1336 1736 1921 1796 1903 1718 1625 1189 1189 875 657 502 349 543 375 205 148 180 145 102 127 136
1667 1659 1569 1594 1456 1747 2121 2531 2699 2615 2207 2122 2155 2387 2452 1867 1941 901 947 1814 1500 1446 1517 1780 2061 1990 1999 1891 1759 1532 1207 1116 829 787 818 582 489 336 155 132 98 52 91
1501 1679 1612 1570 1532 1755 1865 2634 2714 2857 2441 2179 1966 1984 2455 2568 1643 2220 2244 1998 1653 1708 1648 1730 1722 2095 2043 2130 2041 1884 1452 1321 1149 992 833 699 702 706 488 262 61 27 19
319 162 191 1365 1532 1508 1980 2327 2710 2871 2821 2829 2394 2275 2105 2630 2814 1934 2006 1869 1865 1645 1588 1720 1872 2226 2222 2180 2174 1856 1710 1678 1388 1254 1151 1102 970 721 616 245 130 48 29
116 235 120 1094 1302 1578 1783 2304 2908 3038 3110 3129 3089 2902 2725 2241 2334 2504 1987 1999 1537 1680 2608 2220 2126 2311 2337 2189 2197 2128 2073 1793 1874 1585 1487 1649 1005 709 515 466 371 291 102
838 702 631 467 1284 1586 1860 2870 3181 3250 3323 3303 3297 3301 3148 2935 2631 2222 2619 1887 2394 1752 2071 2549 2521 2470 2515 2636 2338 2107 2135 1934 1983 1601 1570 1452 1369 1172 648 815 746 549 438
842 589 849 905 802 1044 1939 2539 3314 3442 3431 3371 3432 3431 3522 3286 3029 2722 2337 3108 2309 2870 2724 2810 2422 2429 2429 2420 2329 2311 2219 2024 1833 1688 1517 1579 1482 1251 1072 1077 932 652 522
922 584 463 729 639 553 1150 2195 3152 3293 3264 3277 3236 3466 3427 3484 3362 3175 2958 2457 2889 2787 2424 3427 3182 2720 2895 2673 2533 2605 2379 2028 1970 1813 1605 1501 1582 1265 1286 1186 1101 816 663
895 603 434 112 133 620 882 1298 2554 2776 3108 3130 3157 3260 3469 3400 3298 3216 3285 3087 2907 3102 3094 2869 3382 3102 2820 2961 2990 2871 2384 2301 1977 1853 1732 1947 1386 1419 1468 1327 1137 913 954
858 1030 599 409 31 160 950 1587 2064 2612 2440 2863 3059 3091 3328 3359 3336 3260 3098 3197 3015 3094 3215 3088 3190 3186 3137 3101 3019 2766 2479 2297 2245 2175 2455 1670 1830 1860 1361 1591 1608 1471 1391
601 946 1149 930 46 35 1345 1524 2432 3157 2442 2332 2626 2753 2872 3161 3168 3109 3046 3218 3057 3313 3289 3284 3065 3274 3001 3082 2997 2861 2661 2548 2334 1955 1899 1805 1911 1782 1108 1124 1176 1294 1457
280 431 774 895 853 837 823 1010 1832 2142 2640 3684 2914 3329 2780 2735 2807 2816 3136 3206 3514 3727 3410 3266 3260 3166 3245 3141 2918 2794 2786 2624 2374 2227 2082 1971 1993 1829 1438 1262 1168 1007 1327
325 274 350 412 527 524 278 773 1394 2529 2477 2279 4018 4208 4447 3525 3133 4023 3856 3471 3709 3651 3856 3327 3271 3342 3279 3101 2643 2583 2600 2505 2398 2357 2173 2114 1779 1751 1567 1511 1320 1231 965
168 300 391 506 517 429 301 967 720 1405 2737 2653 2715 4212 4193 4627 4062 4149 4264 3946 3948 3778 3955 3833 3435 3397 3491 3143 2716 2281 2496 2393 2261 2323 2170 1741 1474 1477 1799 1741 1790 1834 1542
283 404 456 541 629 636 545 359 684 1430 1847 2442 3078 3258 4265 4430 4493 4275 4398 4205 4087 4032 3981 4047 3744 3307 3392 3118 2834 2132 2324 2274 1974 1977 2173 2060 1906 1776 1814 1794 1504 1665 1679
296 541 749 770 842 874 832 825 1084 1208 1491 2851 2428 3148 4302 4354 4570 4369 4371 4307 4250 4182 4010 3974 3556 3371 3460 2762 2449 2291 2143 1935 1796 1779 1773 1987 1956 1719 1639 1387 1387 1362 1306
436 610 773 832 685 698 760 784 997 1522 1510 1605 2251 2373 3110 4289 4294 4401 4384 4344 4302 4162 3862 3775 3462 3306 2886 2501 2375 2346 2145 1794 1704 1716 1904 1731 1747 1568 1330 1230 1145 1115 1049
486 689 1007 914 834 913 954 752 742 1374 1566 1625 1853 2315 2645 3535 4064 3869 3953 3961 3797 3671 3139 2063 1608 1950 2077 1937 1920 1831 1967 1957 1619 1169 1191 1313 1358 1381 1168 1108 959 817 769
801 967 1099 1117 1028 997 1145 1149 934 969 1427 1270 1467 1675 2162 2777 3070 3215 3468 3137 2663 1829 1224 606 104 628 1442 1031 1069 1016 1092 1183 1260 1423 1557 1421 1174 1110 915 870 766 743 593
892 1156 1128 1074 1088 969 831 808 889 999 1016 1158 1578 1553 2267 2282 2386 2268 2314 2420 2134 1258 946 441 197 591 378 100 447 908 967 878 980 1102 1382 1212 1023 1091 1001 802 741 616 482
817 1217 1339 1071 783 879 873 892 975 1170 1071 1263 1571 1886 2225 2099 2352 2217 2115 2153 1575 1219 1114 816 704 347 202 344 182 332 954 1153 1158 984 848 789 661 515 478 376 271 226 204
CIN
-139 -163 -127 -159 -155 -163 -115 -144 -77 -65 -106 -75 -119 -97 -72 -52 -41 -48 -64 -101 -88 -98 -119 -105 -83 -48 -34 -69 -130 -13 -50 -44 -49 -119 -73 -92 -62 -34 -32 -53 -97 -86 -52
-154 -154 -123 -210 -170 -165 -131 -151 -110 -39 -98 -45 -53 -91 -74 -79 -65 -52 -83 -48 -82 -66 -70 -51 -57 -46 -25 -81 -42 -100 -80 -55 -65 -61 -53 -101 -57 -25 -39 -34 -28 -60 -47
-60 -121 -142 -138 -195 -175 -165 -137 -105 -95 -82 -69 -74 -45 -38 -109 -67 -67 -61 -50 -33 -25 -30 -46 -68 -58 -30 -9 -16 -16 -81 -40 -30 -62 -22 -62 -63 -62 -55 -34 -26 -45 -40
-150 -69 -119 -152 -242 -195 -168 -132 -95 -75 -35 -25 -33 -33 -32 -37 -60 -82 -37 -82 -82 -54 -38 -30 -44 -59 -27 -23 -48 -74 -15 -34 -10 -19 -49 -55 -24 -33 -54 -48 -40 -33 -37
-184 -91 -97 -149 -130 -194 -177 -156 -120 -103 -64 -32 -47 -20 -38 -29 -47 -106 -50 -101 -83 -96 -71 -53 -31 -38 -43 -30 -16 -45 -18 -98 -141 -72 -21 -50 -70 -29 -15 -17 -56 -44 -48
-91 -88 -69 -93 -115 -194 -157 -141 -126 -126 -102 -71 -40 -41 -25 -59 -38 -104 -103 -111 -106 -75 -54 -61 -65 -49 -35 -42 -37 -35 -15 -35 -29 -109 -36 -70 -14 -43 -53 -6 -21 -46 -48
-83 -104 -66 -84 -66 -198 -141 -144 -133 -130 -98 -100 -67 -50 -34 -33 -25 -81 -76 -39 -80 -78 -85 -63 -51 -56 -54 -46 -45 -29 -18 -21 -33 -62 -32 -57 -55 -23 -38 -30 -11 -21 -48
-73 -58 -55 -46 -46 -192 -163 -138 -146 -143 -117 -84 -127 -86 -53 -21 -58 -41 -22 -18 -31 -64 -84 -94 -88 -76 -72 -51 -36 -22 -43 -37 -42 -52 -52 -57 -44 -31 -27 -25 -20 -26 -61
-108 -322 -272 -50 -39 -143 -160 -133 -168 -146 -149 -129 -130 -105 -95 -42 -23 -63 -40 -53 -31 -28 -16 -60 -95 -85 -40 -51 -37 -31 -23 -31 -32 -54 -45 -38 -40 -34 -32 -45 -47 -18 -23
-259 -99 -192 -34 -36 -115 -98 -115 -169 -163 -149 -113 -95 -97 -91 -105 -73 -40 -56 -57 -60 -53 -52 -63 -94 -102 -54 -41 -29 -22 -22 -21 -13 -32 -15 -16 -58 -22 -15 -14 -15 -9 -16
-134 -131 -114 -15 -27 -54 -107 -120 -134 -133 -121 -103 -82 -69 -77 -65 -74 -89 -60 -107 -62 -80 -62 -42 -63 -55 -57 -42 -20 -26 -27 -18 -8 -12 -14 -21 -25 -17 -28 -10 -7 -7 -5
-295 -142 -179 -115 -20 -38 -50 -57 -123 -114 -117 -101 -80 -70 -51 -56 -54 -76 -104 -37 -79 -41 -29 -51 -33 -40 -29 -26 -24 -29 -24 -11 -8 -9 -8 -12 -16 -15 -21 -8 -4 -27 -26
-296 -235 -133 -145 -126 -315 -35 -36 -67 -114 -102 -75 -71 -69 -69 -63 -73 -82 -79 -114 -74 -60 -74 -22 -10 -56 -32 -25 -25 -21 -14 -15 -9 -8 -8 -13 -12 -10 -10 -15 -4 -22 -37
-141 -206 -127 -107 -726 -382 -30 -24 -38 -49 -92 -107 -90 -90 -86 -99 -88 -89 -92 -84 -91 -66 -43 -53 -16 -13 -27 -23 -12 -6 -12 -11 -12 -14 -16 0 -15 -12 -6 -10 -22 -27 -7
-146 -101 -97 -70 -119 -67 -51 -84 -98 -91 -42 -70 -85 -89 -84 -92 -99 -98 -106 -95 -83 -67 -61 -35 -20 -13 -13 -21 -17 -9 -15 -15 -12 -16 0 -17 -14 -7 -32 -7 -9 -9 -4
-164 -92 -80 -108 -56 -72 -148 -135 -123 -83 -117 -104 -65 -75 -77 -82 -94 -101 -108 -113 -79 -72 -79 -41 -26 -9 -11 -25 -17 -20 -10 -14 -15 -21 -26 -25 -10 -11 -74 -63 -28 -6 -8
-119 -109 -96 -108 -142 -182 -236 -97 -104 -87 -14 -80 -100 -126 -187 -107 -92 -141 -143 -143 -114 -78 -65 -66 -45 -27 -17 -14 -3 -19 -20 -14 -25 -28 -41 -46 -35 -25 -49 -72 -83 -71 -12
-76 -96 -206 -224 -273 -239 -301 -146 -208 -89 -113 -109 -112 -73 -80 -61 -179 -120 -121 -124 -110 -93 -59 -82 -80 -43 -37 -37 -48 -35 -24 -22 -26 -16 -19 -17 -36 -18 -25 -22 -30 -29 -45
-420 -204 -191 -179 -298 -250 -318 -251 -294 -243 -112 -99 -151 -69 -50 -47 -74 -90 -79 -110 -96 -102 -78 -44 -64 -48 -27 -32 -40 -54 -31 -21 -13 -13 -10 -14 -15 -31 -9 -21 -25 -9 -13
-80 -107 -140 -168 -245 -201 -242 -256 -265 -190 -169 -107 -42 -63 -45 -46 -16 -59 -53 -59 -76 -75 -56 -23 -19 -49 -29 -26 -29 -76 -34 -19 -19 -9 -13 -12 -13 -19 -12 -3 -11 -13 -12
-90 -112 -114 -117 -135 -172 -224 -260 -211 -180 -162 -61 -120 -53 -21 -26 -18 -43 -40 -30 -31 -16 -7 -4 -12 -13 -2 -7 -9 -12 -19 -34 -14 -13 -12 -21 -15 -9 -11 -10 -3 -4 -6
-78 -92 -126 -156 -209 -224 -174 -186 -198 -126 -139 -142 -76 -87 -6 -22 -31 -15 -26 -16 -13 -1 -4 -2 -14 -9 -16 -7 -5 -4 -3 -24 -21 -7 0 -1 -4 -17 -14 -18 -23 -26 -29
-80 -72 -72 -107 -152 -133 -122 -175 -175 -104 -76 -87 -85 -33 -43 -28 -23 -6 -9 -2 -5 -11 -13 -8 -19 0 -1 -4 -9 -4 -4 -6 -34 -66 -24 -12 -11 -8 -12 -14 -16 -15 -17
-65 -44 -65 -83 -116 -127 -109 -89 -129 -167 -84 -109 -100 -82 -40 -27 -1 -4 -2 -2 -26 -23 -9 -19 -41 -28 -25 -46 -57 -137 -103 -80 -46 -50 -40 -18 -15 -3 -21 -15 -4 -1 -7
-62 -42 -54 -78 -98 -108 -113 -128 -117 -116 -120 -115 -55 -58 -7 -13 -9 -38 -40 -39 -49 -59 -56 -49 -112 -15 -31 -33 -291 -241 -257 -225 -104 -37 -33 -14 -7 -3 -1 -10 -1 -2 0
-66 -32 -37 -87 -125 -107 -96 -96 -89 -49 -59 -64 -39 -12 0 -5 0 -16 -50 -49 -77 -62 -31 -44 -68 -57 -51 -331 -305 -375 -133 -33 -32 -22 -14 -2 -5 -1 0 -10 -9 -1 -1
Wind_Speed
20 27 26 25 21 26 22 23 16 16 13 14 15 12 10 7 7 7 10 12 10 10 12 9 9 13 15 17 18 11 nan nan nan nan nan nan nan nan nan nan nan nan nan
21 23 29 31 27 27 24 23 17 19 13 8 15 10 7 9 9 12 11 9 13 10 11 11 10 14 14 17 15 13 11 7 nan 7 nan nan 5 15 13 15 12 nan nan
14 25 26 31 33 28 27 24 22 17 10 5 7 9 8 10 11 11 11 9 10 12 11 11 9 8 13 13 13 16 24 3 6 9 nan nan nan 8 13 14 16 nan nan
24 22 27 30 30 27 25 24 21 19 11 10 6 3 4 5 5 8 8 9 10 11 9 9 9 9 11 11 11 13 16 12 8 7 11 10 10 nan nan 13 15 16 nan
37 44 31 31 25 24 23 22 21 21 18 12 5 2 2 3 4 4 9 7 7 9 8 8 10 12 12 11 14 13 14 15 nan 10 11 9 9 9 10 nan 8 nan nan
56 48 32 22 23 18 20 21 21 19 19 16 9 5 8 6 6 6 7 10 9 9 10 11 10 10 14 13 12 13 16 12 13 11 11 16 11 12 21 11 9 12 15
53 40 24 21 24 19 19 21 23 19 19 18 13 10 7 8 6 7 9 13 14 13 9 11 11 12 12 14 11 11 14 16 14 12 14 19 15 18 18 14 nan nan nan
45 23 12 14 23 22 17 22 19 18 20 18 17 15 9 6 5 4 5 9 11 13 11 10 11 13 14 13 14 13 12 15 14 13 14 16 20 22 22 19 nan nan nan
39 17 13 15 20 20 17 18 18 15 17 20 17 16 14 9 8 7 6 6 7 7 12 13 13 14 13 12 13 13 14 14 15 16 14 15 18 21 21 21 21 nan nan
38 31 19 16 18 15 14 17 19 17 16 16 18 16 15 15 11 6 6 5 5 4 10 11 13 12 11 10 11 12 13 12 12 13 15 15 14 18 16 13 19 25 23
37 47 43 29 13 24 17 16 16 15 14 16 15 14 14 14 11 12 8 8 4 5 7 12 13 12 12 10 10 9 8 11 13 12 14 14 16 14 15 13 11 15 15
40 39 53 53 30 28 28 6 11 13 15 17 17 14 12 13 13 14 14 9 13 8 10 12 10 10 9 6 5 7 6 10 12 14 14 13 12 13 13 12 13 14 13
38 32 40 53 59 21 25 22 4 9 13 13 15 14 14 14 14 14 13 13 8 10 12 12 12 11 8 7 6 8 10 11 15 17 20 17 13 9 9 12 12 12 13
38 33 23 38 54 38 13 10 13 4 8 13 13 13 14 15 15 12 13 14 11 9 9 8 9 9 9 10 11 11 11 14 19 20 22 18 12 14 17 15 13 13 12
34 25 18 23 nan 31 12 5 12 2 5 7 13 13 13 15 13 13 11 13 12 13 12 10 6 8 9 9 11 12 16 18 16 17 20 18 15 17 17 17 16 17 17
35 37 28 19 nan nan 18 19 16 16 8 7 10 12 13 14 12 11 12 12 13 13 13 14 15 13 9 10 13 15 15 18 20 18 16 15 17 18 21 23 22 21 21
44 38 31 23 15 19 21 29 30 28 21 17 10 11 17 20 13 11 10 11 14 16 17 16 14 15 17 19 21 19 17 17 16 16 17 16 16 20 18 18 21 18 23
42 15 22 26 29 28 27 29 37 29 22 20 16 15 12 12 13 14 14 15 16 18 19 21 20 18 17 25 23 24 19 20 18 16 15 14 15 15 18 18 16 14 17
39 37 32 34 44 31 31 33 36 36 33 29 26 23 18 16 28 14 19 19 21 20 22 21 21 23 22 28 26 28 22 19 18 17 17 16 12 12 17 18 17 16 18
59 58 52 42 40 26 32 38 43 44 42 38 35 30 27 23 24 27 26 24 25 26 27 28 26 26 27 29 32 31 29 25 20 18 19 19 20 16 18 20 14 16 16
67 62 59 49 41 44 47 46 48 49 46 47 46 44 33 29 32 30 30 31 30 33 34 34 33 34 35 31 34 38 38 35 29 25 20 20 19 19 16 15 16 17 17
48 56 54 51 45 40 40 41 45 47 50 50 46 44 47 38 35 34 32 35 40 39 38 44 41 38 37 39 34 38 35 38 39 35 31 25 27 25 21 18 15 14 20
45 47 49 47 40 34 34 36 36 42 47 49 48 45 42 40 40 35 32 35 40 47 51 59 56 43 37 41 40 32 34 41 43 44 40 28 20 24 21 16 20 24 25
39 45 50 49 45 38 37 35 33 36 42 44 48 48 47 45 49 50 50 49 48 60 51 46 45 39 29 36 38 40 39 48 50 50 43 25 18 17 20 24 25 24 25
51 46 50 47 44 44 40 35 32 33 36 40 46 48 50 54 57 50 49 47 50 52 49 37 38 39 38 34 41 46 54 62 60 52 25 21 22 21 25 26 26 27 29
43 42 45 45 44 45 41 38 34 32 36 38 43 49 51 55 56 53 51 56 48 48 47 43 44 35 38 47 54 62 65 64 45 29 16 21 26 26 29 34 34 33 34
Wind_Direction
25 11 5 357 358 2 360 354 338 336 311 261 256 246 239 203 239 243 295 293 294 297 302 308 305 301 310 321 319 320 nan nan nan nan nan nan nan nan nan nan nan nan nan
354 7 5 360 343 350 359 0 356 349 343 296 231 226 250 231 232 254 283 297 310 313 305 310 312 310 306 303 310 297 282 293 nan 3 nan nan 294 347 18 6 359 nan nan
358 354 5 356 347 337 352 360 6 2 6 1 158 196 233 239 249 258 287 284 293 298 305 314 315 321 304 314 320 314 317 337 5 7 nan nan nan 320 333 350 2 nan nan
11 5 357 353 347 334 345 355 2 10 9 358 332 283 285 274 272 273 265 273 296 305 311 314 315 317 302 316 326 321 327 327 14 10 22 18 345 nan nan 323 346 353 nan
343 345 357 350 347 334 340 353 355 1 10 9 326 317 11 334 310 263 302 314 296 305 310 312 307 311 305 316 318 324 334 356 nan 6 341 349 348 334 278 nan 331 nan nan
329 340 343 343 350 339 336 345 347 358 4 16 34 349 339 329 285 289 281 304 294 298 307 321 326 319 312 317 314 319 327 339 341 342 318 334 325 306 303 352 321 326 325
318 326 340 339 351 349 337 335 342 350 360 10 15 10 351 345 312 294 279 288 293 292 318 318 303 303 303 299 303 308 311 324 332 324 300 305 319 305 300 300 nan nan nan
271 269 276 350 347 350 353 338 345 346 352 2 12 13 353 316 327 291 263 273 291 300 319 302 307 303 299 304 296 290 294 306 311 321 310 307 316 305 288 281 nan nan nan
276 347 48 121 343 346 354 347 344 348 352 356 8 10 6 339 310 308 284 276 283 291 299 335 331 315 303 295 293 295 307 305 322 338 330 322 338 316 299 286 270 nan nan
307 301 232 94 358 331 333 346 335 349 357 7 5 14 20 25 21 341 328 307 289 261 271 290 304 308 305 299 301 312 313 308 315 315 328 334 329 342 336 317 270 277 288
288 297 302 183 221 239 324 325 330 342 351 7 10 12 12 9 21 31 30 29 345 339 322 316 314 309 315 317 316 329 331 316 312 316 324 336 336 348 358 341 321 303 298
282 283 280 277 179 204 216 168 338 348 352 1 1 12 5 10 19 35 50 45 43 35 24 3 5 354 350 331 320 319 325 328 329 328 327 332 327 349 348 350 5 355 300
274 272 276 278 274 288 156 149 147 16 3 355 356 358 13 20 23 27 41 45 35 37 38 24 15 9 5 355 352 351 335 336 344 342 339 331 318 333 338 342 344 353 348
273 268 258 276 292 310 286 122 188 260 10 359 359 348 1 15 29 26 26 30 24 18 18 13 358 351 350 357 349 341 336 338 338 342 349 354 331 331 331 327 331 326 324
263 263 252 265 nan 274 249 203 208 307 308 349 350 359 350 359 11 23 20 15 359 5 351 351 341 347 343 346 347 337 331 338 343 341 340 350 360 1 344 338 353 345 320
272 272 258 244 nan nan 254 242 239 235 261 301 340 332 340 334 349 359 4 342 342 329 331 331 329 322 329 348 343 332 330 340 344 346 348 346 350 353 353 359 358 346 343
253 259 276 264 243 257 260 243 243 237 222 228 240 276 310 334 313 317 323 327 315 303 320 319 313 317 320 330 333 338 319 329 334 339 338 334 340 341 342 356 1 359 356
290 232 280 282 277 255 249 252 249 258 245 248 257 257 273 298 302 306 310 300 293 299 303 313 314 313 314 320 328 329 321 317 323 324 326 322 328 330 326 332 347 358 360
258 260 255 272 293 258 249 246 245 246 241 237 248 261 262 266 293 275 291 295 294 289 285 288 298 299 301 313 313 310 308 308 310 310 312 316 315 332 332 327 337 343 348
275 277 275 275 269 252 253 246 248 246 244 240 237 247 264 267 272 284 278 286 286 290 287 291 292 291 287 299 303 301 292 297 294 298 303 325 315 320 307 304 307 309 320
272 276 278 283 274 267 260 239 239 243 242 243 236 232 248 261 262 266 272 280 283 281 281 282 279 276 278 284 297 305 296 294 290 290 288 293 307 303 292 301 297 303 293
275 274 277 276 267 260 254 246 236 237 241 241 239 232 227 249 254 262 266 271 273 275 276 271 265 265 271 276 286 298 295 283 278 273 270 267 272 278 285 289 299 286 287
267 270 272 274 273 270 262 250 245 239 239 239 239 238 235 232 250 250 256 258 263 257 253 251 245 232 256 268 273 273 273 277 278 273 264 271 257 261 262 276 281 285 291
270 269 270 271 270 269 266 267 251 241 237 237 239 236 236 234 242 245 249 258 262 258 237 244 302 289 251 260 263 274 278 282 290 272 246 259 264 274 272 273 279 282 288
267 264 262 262 265 262 260 259 259 251 241 236 237 237 238 249 251 244 246 256 257 283 297 292 292 299 296 287 293 305 289 287 271 245 227 248 261 265 270 271 276 283 283
264 265 264 257 253 256 254 253 254 255 248 238 239 237 246 250 249 252 246 243 251 268 268 283 282 281 295 306 303 295 291 291 269 245 231 251 260 266 271 278 279 277 276